Weather History for Clinton, AR

Change the Weather History Date:

Monday, February 4, 2013

  Actual Average (KFLP) Record (KFLP)
Temperature  
Mean Temperature 40 °F -  
Max Temperature 48 °F 47 °F 77 °F (2008)
Min Temperature 33 °F 28 °F 17 °F (2007)
Degree Days  
Heating Degree Days 24    
Moisture  
Dew Point 37 °F    
Average Humidity 92    
Maximum Humidity 100    
Minimum Humidity 82    
Precipitation  
Precipitation 0.03 in - - ()
Sea Level Pressure  
Sea Level Pressure 29.97 in    
Wind  
Wind Speed 0 mph (East)    
Max Wind Speed 5 mph    
Max Gust Speed -    
Visibility 7 miles    
Events Fog , Rain    
Averages and records for this station are not official NWS values.
T = Trace of Precipitation, MM = Missing Value Source: NWS Daily Summary

Daily Weather History Graph

Daily Weather History Graph

Search for Another Location

Airport:

Trip Planner

Search our weather history database for the weather conditions in past years. The results will help you decide how hot, cold, wet, or windy it might be!

Date:

Astronomy

Feb. 04, 2013 Rise Set
Actual Time 7:07 AM CST 5:40 PM CST
Civil Twilight 6:40 AM CST 6:07 PM CST
Nautical Twilight 6:10 AM CST 6:37 PM CST
Astronomical Twilight 5:40 AM CST 7:07 PM CST
Moon 1:40 AM CST (2/4) 12:07 PM CST (2/4)
Length of Visible Light 11h 27m
Length of Day
10h 33m
Last Quarter, 37% of the Moon is Illuminated
Feb 4
Last Quarter
Feb 10
New
Feb 17
First Quarter
Feb 25
Full
Mar 4
Last Quarter

Hourly Weather History & Observations

Time (CST) Temp. Windchill Dew Point Humidity Pressure Visibility Wind Dir Wind Speed Gust Speed Precip Events Conditions
12:15 AM 33.8 °F - 30.2 °F 87% 30.08 in 10.0 mi Calm Calm - N/A   Clear
12:35 AM 33.8 °F - 30.2 °F 87% 30.08 in 10.0 mi Calm Calm - N/A   Clear
12:55 AM 33.8 °F - 32.0 °F 93% 30.07 in 10.0 mi Calm Calm - N/A   Clear
1:15 AM 33.8 °F - 32.0 °F 93% 30.06 in 10.0 mi Calm Calm - N/A   Clear
1:35 AM 33.8 °F - 32.0 °F 93% 30.06 in 10.0 mi Calm Calm - N/A   Clear
1:55 AM 33.8 °F - 32.0 °F 93% 30.05 in 10.0 mi Calm Calm - N/A   Clear
2:15 AM 33.8 °F - 32.0 °F 93% 30.04 in 10.0 mi Calm Calm - N/A   Clear
2:35 AM 33.8 °F - 32.0 °F 93% 30.04 in 10.0 mi Calm Calm - N/A   Clear
2:55 AM 33.8 °F - 32.0 °F 93% 30.04 in 10.0 mi Calm Calm - N/A   Clear
3:15 AM 33.8 °F - 32.0 °F 93% 30.03 in 10.0 mi Calm Calm - N/A   Clear
4:55 AM 35.6 °F - 32.0 °F 87% 30.01 in 10.0 mi Calm Calm - N/A   Mostly Cloudy
5:15 AM 35.6 °F - 32.0 °F 87% 30.00 in 10.0 mi Calm Calm - N/A   Mostly Cloudy
5:35 AM 35.6 °F - 32.0 °F 87% 30.00 in 10.0 mi Calm Calm - N/A   Mostly Cloudy
5:55 AM 35.6 °F - 32.0 °F 87% 29.99 in 10.0 mi Calm Calm - N/A   Mostly Cloudy
6:15 AM 35.6 °F - 32.0 °F 87% 29.99 in 10.0 mi Calm Calm - N/A   Partly Cloudy
6:35 AM 35.6 °F - 32.0 °F 87% 29.98 in 10.0 mi Calm Calm - N/A   Clear
6:55 AM 35.6 °F - 32.0 °F 87% 29.99 in 10.0 mi Calm Calm - N/A   Clear
7:15 AM 35.6 °F - 33.8 °F 93% 29.98 in 10.0 mi Calm Calm - N/A   Partly Cloudy
7:35 AM 35.6 °F - 33.8 °F 93% 29.98 in 10.0 mi Calm Calm - N/A   Mostly Cloudy
7:55 AM 37.4 °F - 33.8 °F 87% 30.00 in 10.0 mi Calm Calm - N/A   Partly Cloudy
8:15 AM 37.4 °F - 35.6 °F 93% 30.01 in 5.0 mi Calm Calm - N/A Rain Light Rain
8:35 AM 37.4 °F 34.9 °F 35.6 °F 93% 30.02 in 8.0 mi NNE 3.5 mph - N/A Rain Light Rain
8:55 AM 39.2 °F 37.0 °F 37.4 °F 93% 30.01 in 6.0 mi NNE 3.5 mph - 0.01 in Rain Light Rain
9:15 AM 39.2 °F - 37.4 °F 93% 30.01 in 9.0 mi Calm Calm - N/A Rain Light Rain
9:55 AM 41.0 °F - 37.4 °F 87% 30.01 in 5.0 mi Calm Calm - 0.01 in Rain Light Rain
10:15 AM 41.0 °F - 39.2 °F 93% 30.01 in 5.0 mi Calm Calm - N/A Rain Light Rain
10:35 AM 41.0 °F - 39.2 °F 93% 30.01 in 5.0 mi Calm Calm - 0.01 in Rain Light Rain
10:55 AM 41.0 °F - 39.2 °F 93% 30.00 in 5.0 mi Calm Calm - 0.01 in Rain Light Rain
11:15 AM 42.8 °F - 39.2 °F 87% 29.99 in 10.0 mi Calm Calm - N/A   Mostly Cloudy
11:35 AM 42.8 °F - 39.2 °F 87% 29.98 in 10.0 mi Calm Calm - N/A   Overcast
11:55 AM 42.8 °F - 39.2 °F 87% 29.96 in 10.0 mi Calm Calm - N/A   Overcast
12:15 PM 42.8 °F - 41.0 °F 93% 29.95 in 7.0 mi Calm Calm - N/A   Mostly Cloudy
12:35 PM 44.6 °F - 41.0 °F 87% 29.94 in 9.0 mi Calm Calm - N/A   Mostly Cloudy
12:55 PM 44.6 °F - 41.0 °F 87% 29.93 in 7.0 mi Calm Calm - N/A   Mostly Cloudy
1:15 PM 44.6 °F - 42.8 °F 93% 29.92 in 10.0 mi Calm Calm - N/A   Overcast
1:35 PM 44.6 °F - 42.8 °F 93% 29.91 in 10.0 mi Calm Calm - N/A   Overcast
1:55 PM 46.4 °F - 42.8 °F 87% 29.92 in 10.0 mi Calm Calm - N/A   Overcast
2:15 PM 46.4 °F - 44.6 °F 93% 29.91 in 10.0 mi Calm Calm - N/A   Overcast
2:35 PM 46.4 °F - 44.6 °F 93% 29.91 in 10.0 mi Calm Calm - N/A   Overcast
2:55 PM 46.4 °F 44.3 °F 44.6 °F 93% 29.89 in 10.0 mi SSE 4.6 mph - N/A   Overcast
3:15 PM 46.4 °F 45.2 °F 42.8 °F 87% 29.89 in 10.0 mi SSE 3.5 mph - N/A   Overcast
3:35 PM 46.4 °F - 42.8 °F 87% 29.90 in 10.0 mi Calm Calm - N/A   Overcast
3:55 PM 48.2 °F - 42.8 °F 82% 29.91 in 10.0 mi Calm Calm - N/A   Mostly Cloudy
4:15 PM 48.2 °F - 44.6 °F 87% 29.90 in 10.0 mi Calm Calm - N/A   Overcast
4:35 PM 48.2 °F - 44.6 °F 87% 29.90 in 10.0 mi Calm Calm - N/A   Mostly Cloudy
4:55 PM 48.2 °F - 44.6 °F 87% 29.90 in 10.0 mi Calm Calm - N/A   Overcast
5:15 PM 46.4 °F - 44.6 °F 93% 29.90 in 10.0 mi Calm Calm - N/A   Scattered Clouds
5:35 PM 44.6 °F - 42.8 °F 93% 29.90 in 10.0 mi Calm Calm - N/A   Clear
5:55 PM 42.8 °F - 42.8 °F 100% 29.91 in 9.0 mi Calm Calm - N/A   Clear
6:15 PM 42.8 °F - 41.0 °F 93% 29.91 in 7.0 mi Calm Calm - N/A   Clear
6:35 PM 39.2 °F - 39.2 °F 100% 29.92 in 5.0 mi Calm Calm - N/A   Clear
6:55 PM 39.2 °F - 39.2 °F 100% 29.93 in 4.0 mi Calm Calm - N/A   Clear
7:15 PM 37.4 °F - 37.4 °F 100% 29.94 in 4.0 mi Calm Calm - N/A   Clear
7:35 PM 37.4 °F - 35.6 °F 93% 29.94 in 5.0 mi Calm Calm - N/A   Partly Cloudy
7:55 PM 37.4 °F - 35.6 °F 93% 29.94 in 0.2 mi Calm Calm - N/A Fog Fog
8:15 PM 35.6 °F - 35.6 °F 100% 29.95 in 0.2 mi Calm Calm - N/A Fog Fog
8:35 PM 35.6 °F - 35.6 °F 100% 29.95 in 0.2 mi Calm Calm - N/A Fog Fog
8:55 PM 35.6 °F - 33.8 °F 93% 29.95 in 0.5 mi Calm Calm - N/A Fog Fog
9:15 PM 35.6 °F - 33.8 °F 93% 29.95 in 0.2 mi Calm Calm - N/A Fog Fog
9:35 PM 35.6 °F - 35.6 °F 100% 29.95 in 0.2 mi Calm Calm - N/A Fog Fog
9:55 PM 35.6 °F - 35.6 °F 100% 29.96 in 0.2 mi Calm Calm - N/A Fog Fog
10:15 PM 35.6 °F - 35.6 °F 100% 29.96 in 0.2 mi Calm Calm - N/A Fog Fog
10:35 PM 35.6 °F - 33.8 °F 93% 29.96 in 0.2 mi Calm Calm - N/A Fog Fog
10:55 PM 35.6 °F - 35.6 °F 100% 29.96 in 0.2 mi Calm Calm - N/A Fog Fog
11:15 PM 35.6 °F - 35.6 °F 100% 29.96 in 0.2 mi Calm Calm - N/A Fog Fog
11:35 PM 35.6 °F - 35.6 °F 100% 29.96 in 0.2 mi Calm Calm - N/A Fog Fog
11:55 PM 35.6 °F - 33.8 °F 93% 29.96 in 0.2 mi Calm Calm - N/A Fog Fog